Satellite: MET-3/5
Catalog number: 21655
Epoch time:      08318.24489659
Element set:     514
Inclination:      082.5561 deg
RA of node:       359.0718 deg
Eccentricity:    0.0013928
Arg of perigee:   006.3436 deg
Mean anomaly:     353.7860 deg
Mean motion:   13.17016888 rev/day
Decay rate:        5.1e-07 rev/day^2
Epoch rev:           82920
Checksum:              322

Satellite: MET-2/21
Catalog number: 22782
Epoch time:      08318.46605286
Element set:     300
Inclination:      082.5497 deg
RA of node:       353.1506 deg
Eccentricity:    0.0021196
Arg of perigee:   229.3930 deg
Mean anomaly:     130.5389 deg
Mean motion:   13.83631542 rev/day
Decay rate:        4.9e-07 rev/day^2
Epoch rev:           76777
Checksum:              314

Satellite: OKEAN-4
Catalog number: 23317
Epoch time:      08318.81551165
Element set:     746
Inclination:      082.5402 deg
RA of node:       175.4596 deg
Eccentricity:    0.0022470
Arg of perigee:   358.5343 deg
Mean anomaly:     001.5779 deg
Mean motion:   14.82650937 rev/day
Decay rate:       2.24e-06 rev/day^2
Epoch rev:           76045
Checksum:              307

Satellite: NOAA-14
Catalog number: 23455
Epoch time:      08318.45508558
Element set:     386
Inclination:      098.9347 deg
RA of node:       030.6750 deg
Eccentricity:    0.0010269
Arg of perigee:   083.9043 deg
Mean anomaly:     276.3293 deg
Mean motion:   14.13752549 rev/day
Decay rate:        7.2e-07 rev/day^2
Epoch rev:           71544
Checksum:              321

Satellite: NOAA-15
Catalog number: 25338
Epoch time:      08318.59422502
Element set:     696
Inclination:      098.5669 deg
RA of node:       306.7544 deg
Eccentricity:    0.0010236
Arg of perigee:   331.5921 deg
Mean anomaly:     028.4712 deg
Mean motion:   14.24732222 rev/day
Decay rate:        1.8e-07 rev/day^2
Epoch rev:           54607
Checksum:              300

Satellite: RESURS
Catalog number: 25394
Epoch time:      08318.68505231
Element set:      69
Inclination:      098.3691 deg
RA of node:       355.6958 deg
Eccentricity:    0.0002120
Arg of perigee:   098.1142 deg
Mean anomaly:     262.0278 deg
Mean motion:   14.24175063 rev/day
Decay rate:       -7.0e-08 rev/day^2
Epoch rev:           53772
Checksum:              298

Satellite: FENGYUN1
Catalog number: 25730
Epoch time:      08317.88661129
Element set:     613
Inclination:      098.7384 deg
RA of node:       288.7424 deg
Eccentricity:    0.0021593
Arg of perigee:   102.7029 deg
Mean anomaly:     257.6548 deg
Mean motion:   14.07852671 rev/day
Decay rate:       8.79e-06 rev/day^2
Epoch rev:           48988
Checksum:              351

Satellite: OKEAN-0
Catalog number: 25860
Epoch time:      08317.89706701
Element set:     522
Inclination:      097.7648 deg
RA of node:       301.9822 deg
Eccentricity:    0.0001383
Arg of perigee:   095.9743 deg
Mean anomaly:     264.1627 deg
Mean motion:   14.73544264 rev/day
Decay rate:        5.9e-07 rev/day^2
Epoch rev:           50129
Checksum:              315

Satellite: NOAA-16
Catalog number: 26536
Epoch time:      08318.59994414
Element set:     169
Inclination:      099.1692 deg
RA of node:       311.1493 deg
Eccentricity:    0.0010659
Arg of perigee:   162.4697 deg
Mean anomaly:     197.6830 deg
Mean motion:   14.12503857 rev/day
Decay rate:       2.82e-06 rev/day^2
Epoch rev:           41986
Checksum:              344

Satellite: NOAA-17
Catalog number: 27453
Epoch time:      08318.50544873
Element set:     172
Inclination:      098.5181 deg
RA of node:       018.6735 deg
Eccentricity:    0.0012235
Arg of perigee:   037.3497 deg
Mean anomaly:     322.8575 deg
Mean motion:   14.24016999 rev/day
Decay rate:        8.8e-07 rev/day^2
Epoch rev:           33205
Checksum:              320

Satellite: NOAA-18
Catalog number: 28654
Epoch time:      08318.44258958
Element set:     659
Inclination:      098.8836 deg
RA of node:       257.6284 deg
Eccentricity:    0.0013497
Arg of perigee:   252.0936 deg
Mean anomaly:     107.8750 deg
Mean motion:   14.11208837 rev/day
Decay rate:        8.0e-08 rev/day^2
Epoch rev:           17952
Checksum:              353

/EX
SB KEPS @ AMSAT  $ORB08318.M
Orbital Elements  08318.MISC

HR AMSAT ORBITAL ELEMENTS FOR MANNED AND MISCELLANEOUS SATELLITES
FROM WA5QGD FORT WORTH,TX November 13, 2008
Send Subscribe/unsubscribe to KEPS at 
http://www.amsat.org/mailman/listinfo/keps
BID: ORB08318.M
TO ALL RADIO AMATEURS BT

Satellite: HUBBLE
Catalog number: 20580
Epoch time:      08317.67866537
Element set:     261
Inclination:      028.4682 deg
RA of node:       074.6869 deg
Eccentricity:    0.0003918
Arg of perigee:   162.4520 deg
Mean anomaly:     197.6204 deg
Mean motion:   15.00427267 rev/day
Decay rate:       3.59e-06 rev/day^2
Epoch rev:           81730
Checksum:              310

Satellite: PO-34
Catalog number: 25520
Epoch time:      08318.90842479
Element set:     121
Inclination:      028.4611 deg
RA of node:       256.3682 deg
Eccentricity:    0.0005383
Arg of perigee:   119.4091 deg
Mean anomaly:     240.7041 deg
Mean motion:   15.17258018 rev/day
Decay rate:       4.98e-06 rev/day^2
Epoch rev:           55592
Checksum:              299

